| time (UTC) | temp F | wind direction | speed knots | gust knots | rain 1hr in | rain 24hr in | rain mn in | humidity % | barometer mb |
| 20260510052649 | 55 | 0 | 0.0 | 0.0 | 181.83 | 0.00 | 0.00 | ||
| 20260510052149 | 57 | 0 | 0.0 | 0.0 | 181.83 | 0.00 | 0.00 | ||
| 20260510051649 | 60 | 187 | 1.7 | 4.3 | 181.83 | 0.00 | 0.00 | ||
| 20260510031149 | 58 | 0 | 0.0 | 0.0 | 181.83 | 0.00 | 0.00 | ||
| 20260510030149 | 57 | 0 | 0.0 | 0.0 | 181.83 | 0.00 | 0.00 | ||
| 20260510025649 | 57 | 0 | 0.0 | 0.0 | 181.83 | 0.00 | 0.00 | ||
| 20260510025149 | 58 | 0 | 0.0 | 0.0 | 181.83 | 0.00 | 0.00 | ||
| 20260510024649 | 59 | 0 | 0.0 | 0.0 | 181.83 | 0.00 | 0.00 | ||
| 20260510024149 | 59 | 0 | 0.0 | 0.0 | 181.83 | 0.00 | 0.00 | ||
| 20260510023650 | 59 | 0 | 0.0 | 0.0 | 181.83 | 0.00 | 0.00 | ||
| 20260510023149 | 58 | 0 | 0.0 | 0.0 | 181.83 | 0.00 | 0.00 | ||
| 20260510022649 | 56 | 0 | 0.0 | 0.0 | 181.83 | 0.00 | 0.00 | ||
| 20260510022149 | 60 | 0 | 0.0 | 0.0 | 181.83 | 0.00 | 0.00 | ||
| 20260510021649 | 60 | 246 | 0.9 | 3.5 | 181.83 | 0.00 | 0.00 | ||
| 20260510021149 | 61 | 262 | 0.9 | 2.6 | 181.83 | 0.00 | 0.00 | ||
| 20260510020650 | 63 | 260 | 1.7 | 7.0 | 181.83 | 0.00 | 0.00 | ||
| 20260510020149 | 61 | 0 | 0.0 | 0.0 | 181.83 | 0.00 | 0.00 | ||
| 20260510015649 | 60 | 0 | 0.0 | 0.0 | 181.83 | 0.00 | 0.00 | ||
| 20260510015149 | 61 | 0 | 0.0 | 0.0 | 181.83 | 0.00 | 0.00 | ||
| 20260510014649 | 61 | 0 | 0.0 | 0.0 | 181.83 | 0.00 | 0.00 | ||
| 20260510014149 | 60 | 0 | 0.0 | 0.0 | 181.83 | 0.00 | 0.00 | ||
| 20260510013649 | 59 | 0 | 0.0 | 0.0 | 181.83 | 0.00 | 0.00 | ||
| 20260510013149 | 60 | 0 | 0.0 | 0.0 | 181.83 | 0.00 | 0.00 | ||
| 20260510012651 | 61 | 0 | 0.0 | 0.0 | 181.83 | 0.00 | 0.00 | ||
| 20260510012149 | 62 | 236 | 0.9 | 4.3 | 181.83 | 0.00 | 0.00 | ||
| 20260510011648 | 62 | 285 | 2.6 | 5.2 | 181.83 | 0.00 | 0.00 | ||
| 20260510011148 | 60 | 278 | 1.7 | 4.3 | 181.83 | 0.00 | 0.00 | ||
| 20260510010649 | 61 | 0 | 0.0 | 0.0 | 181.83 | 0.00 | 0.00 | ||
| 20260510010148 | 59 | 0 | 0.0 | 0.0 | 181.83 | 0.00 | 0.00 | ||
| 20260510005649 | 61 | 0 | 0.0 | 0.0 | 181.83 | 0.00 | 0.00 | ||
| 20260510005148 | 63 | 0 | 0.0 | 0.0 | 181.83 | 0.00 | 0.00 | ||
| 20260510004649 | 62 | 0 | 0.0 | 0.0 | 181.83 | 0.00 | 0.00 | ||
| 20260510004151 | 64 | 0 | 0.0 | 0.0 | 181.83 | 0.00 | 0.00 | ||
| 20260510003649 | 62 | 0 | 0.0 | 0.0 | 181.83 | 0.00 | 0.00 | ||
| 20260510003149 | 62 | 0 | 0.0 | 0.0 | 181.83 | 0.00 | 0.00 | ||
| 20260510002648 | 64 | 0 | 0.0 | 0.0 | 181.83 | 0.00 | 0.00 | ||
| 20260510002148 | 64 | 0 | 0.0 | 0.0 | 181.83 | 0.00 | 0.00 | ||
| 20260510001649 | 65 | 0 | 0.0 | 0.0 | 181.83 | 0.00 | 0.00 | ||
| 20260510001148 | 68 | 0 | 0.0 | 0.0 | 181.83 | 0.00 | 0.00 | ||
| 20260510000650 | 66 | 0 | 0.0 | 0.0 | 181.83 | 0.00 | 0.00 | ||
| 20260510000149 | 70 | 0 | 0.0 | 0.0 | 181.83 | 0.00 | 0.00 | ||
| 20260509235650 | 70 | 0 | 0.0 | 0.0 | 181.83 | 0.00 | 0.00 | ||
| 20260509235148 | 68 | 0 | 0.0 | 0.0 | 181.83 | 0.00 | 0.00 | ||
| 20260509234649 | 69 | 291 | 0.9 | 3.5 | 181.83 | 0.00 | 0.00 | ||
| 20260509234149 | 70 | 280 | 3.5 | 7.8 | 181.83 | 0.00 | 0.00 | ||
| 20260509233649 | 68 | 0 | 0.0 | 0.0 | 181.83 | 0.00 | 0.00 | ||
| 20260509233149 | 70 | 0 | 0.0 | 0.0 | 181.83 | 0.00 | 0.00 | ||
| 20260509232649 | 71 | 0 | 0.0 | 0.0 | 181.83 | 0.00 | 0.00 | ||
| 20260509232151 | 71 | 0 | 0.0 | 0.0 | 181.83 | 0.00 | 0.00 | ||
| 20260509231648 | 69 | 0 | 0.0 | 0.0 | 181.83 | 0.00 | 0.00 | ||
| 20260509231148 | 69 | 0 | 0.0 | 0.0 | 181.83 | 0.00 | 0.00 | ||
| 20260509230649 | 74 | 0 | 0.0 | 0.0 | 181.83 | 0.00 | 0.00 | ||
| 20260509230149 | 73 | 0 | 0.0 | 0.0 | 181.83 | 0.00 | 0.00 | ||
| 20260509225649 | 74 | 204 | 2.6 | 4.3 | 181.83 | 0.00 | 0.00 | ||
| 20260509225148 | 73 | 329 | 2.6 | 4.3 | 181.83 | 0.00 | 0.00 | ||
| 20260509224655 | 71 | 0 | 0.0 | 0.0 | 181.83 | 0.00 | 0.00 | ||
| 20260509224149 | 71 | 188 | 3.5 | 4.3 | 181.83 | 0.00 | 0.00 | ||
| 20260509223649 | 68 | 0 | 0.0 | 0.0 | 181.83 | 0.00 | 0.00 | ||
| 20260509223149 | 68 | 0 | 0.0 | 0.0 | 181.83 | 0.00 | 0.00 | ||
| 20260509222649 | 69 | 207 | 1.7 | 5.2 | 181.83 | 0.00 | 0.00 | ||
| 20260509222149 | 68 | 194 | 4.3 | 7.0 | 181.83 | 0.00 | 0.00 | ||
| 20260509221649 | 69 | 188 | 3.5 | 6.1 | 181.83 | 0.00 | 0.00 | ||
| 20260509221149 | 70 | 205 | 3.5 | 5.2 | 181.83 | 0.00 | 0.00 | ||
| 20260509220651 | 71 | 204 | 1.7 | 3.5 | 181.83 | 0.00 | 0.00 | ||
| 20260509220152 | 68 | 195 | 1.7 | 4.3 | 181.83 | 0.00 | 0.00 | ||
| 20260509215649 | 70 | 197 | 0.9 | 4.3 | 181.83 | 0.00 | 0.00 | ||
| 20260509215149 | 68 | 197 | 0.9 | 3.5 | 181.83 | 0.00 | 0.00 | ||
| 20260509214649 | 71 | 201 | 5.2 | 7.8 | 181.83 | 0.00 | 0.00 | ||
| 20260509214150 | 73 | 210 | 4.3 | 5.2 | 181.83 | 0.00 | 0.00 | ||
| 20260509213649 | 72 | 0 | 0.0 | 0.0 | 181.83 | 0.00 | 0.00 | ||
| 20260509213150 | 69 | 200 | 2.6 | 4.3 | 181.83 | 0.00 | 0.00 | ||
| 20260509212649 | 71 | 198 | 2.6 | 5.2 | 181.83 | 0.00 | 0.00 | ||
| 20260509212151 | 71 | 0 | 0.0 | 0.0 | 181.83 | 0.00 | 0.00 | ||
| 20260509211650 | 71 | 0 | 0.0 | 0.0 | 181.83 | 0.00 | 0.00 | ||
| 20260509211151 | 68 | 204 | 4.3 | 6.1 | 181.83 | 0.00 | 0.00 | ||
| 20260509210650 | 70 | 210 | 1.7 | 4.3 | 181.83 | 0.00 | 0.00 | ||
| 20260509210149 | 71 | 184 | 2.6 | 5.2 | 181.83 | 0.00 | 0.00 | ||
| 20260509205650 | 70 | 204 | 4.3 | 6.1 | 181.83 | 0.00 | 0.00 | ||
| 20260509205149 | 68 | 193 | 5.2 | 7.8 | 181.83 | 0.00 | 0.00 | ||
| 20260509204149 | 70 | 195 | 4.3 | 6.1 | 181.83 | 0.00 | 0.00 | ||
| 20260509203649 | 71 | 201 | 4.3 | 7.0 | 181.83 | 0.00 | 0.00 | ||
| 20260509203149 | 71 | 203 | 2.6 | 4.3 | 181.83 | 0.00 | 0.00 | ||
| 20260509202650 | 72 | 197 | 5.2 | 7.0 | 181.83 | 0.00 | 0.00 | ||
| 20260509202150 | 70 | 201 | 4.3 | 7.0 | 181.83 | 0.00 | 0.00 | ||
| 20260509201649 | 73 | 203 | 4.3 | 7.0 | 181.83 | 0.00 | 0.00 | ||
| 20260509201150 | 72 | 200 | 2.6 | 6.1 | 181.83 | 0.00 | 0.00 | ||
| 20260509200649 | 70 | 194 | 5.2 | 7.0 | 181.83 | 0.00 | 0.00 | ||
| 20260509200150 | 73 | 210 | 4.3 | 7.0 | 181.83 | 0.00 | 0.00 | ||
| 20260509195649 | 72 | 114 | 1.7 | 4.3 | 181.83 | 0.00 | 0.00 | ||
| 20260509195149 | 69 | 0 | 0.0 | 0.0 | 181.83 | 0.00 | 0.00 | ||
| 20260509194649 | 68 | 204 | 0.9 | 4.3 | 181.83 | 0.00 | 0.00 | ||
| 20260509194150 | 72 | 208 | 3.5 | 6.1 | 181.83 | 0.00 | 0.00 | ||
| 20260509193650 | 74 | 203 | 5.2 | 7.0 | 181.83 | 0.00 | 0.00 | ||
| 20260509193150 | 73 | 203 | 5.2 | 7.8 | 181.83 | 0.00 | 0.00 | ||
| 20260509192649 | 71 | 212 | 5.2 | 7.8 | 181.83 | 0.00 | 0.00 | ||
| 20260509192150 | 75 | 208 | 5.2 | 8.7 | 181.83 | 0.00 | 0.00 | ||
| 20260509191650 | 73 | 188 | 6.1 | 9.6 | 181.83 | 0.00 | 0.00 | ||
| 20260509191149 | 74 | 197 | 5.2 | 7.8 | 181.83 | 0.00 | 0.00 | ||
| 20260509190650 | 69 | 210 | 3.5 | 6.1 | 181.83 | 0.00 | 0.00 | ||
| 20260509190150 | 68 | 187 | 4.3 | 6.1 | 181.83 | 0.00 | 0.00 | ||
| 20260509185650 | 69 | 204 | 5.2 | 7.8 | 181.83 | 0.00 | 0.00 | ||
| 20260509185149 | 71 | 212 | 4.3 | 7.0 | 181.83 | 0.00 | 0.00 | ||
| 20260509184651 | 67 | 211 | 5.2 | 7.0 | 181.83 | 0.00 | 0.00 | ||
| 20260509184150 | 68 | 0 | 0.0 | 0.0 | 181.83 | 0.00 | 0.00 | ||
| 20260509183651 | 68 | 203 | 4.3 | 6.1 | 181.83 | 0.00 | 0.00 | ||
| 20260509183150 | 67 | 177 | 3.5 | 7.0 | 181.83 | 0.00 | 0.00 | ||
| 20260509182650 | 69 | 205 | 3.5 | 6.1 | 181.83 | 0.00 | 0.00 | ||
| 20260509182150 | 70 | 200 | 3.5 | 6.1 | 181.83 | 0.00 | 0.00 | ||
| 20260509181650 | 71 | 201 | 3.5 | 7.0 | 181.83 | 0.00 | 0.00 | ||
| 20260509181150 | 68 | 195 | 3.5 | 6.1 | 181.83 | 0.00 | 0.00 | ||
| 20260509180650 | 74 | 333 | 3.5 | 5.2 | 181.83 | 0.00 | 0.00 | ||
| 20260509180150 | 73 | 326 | 1.7 | 6.1 | 181.83 | 0.00 | 0.00 | ||
| 20260509175650 | 72 | 0 | 0.0 | 0.0 | 181.83 | 0.00 | 0.00 | ||
| 20260509174651 | 71 | 195 | 1.7 | 5.2 | 181.83 | 0.00 | 0.00 |